| time (UTC) | temp F | wind direction | speed MPH | gust MPH | rain 1hr in | rain 24hr in | rain mn in | humidity % | barometer mb |
| 20260507022720 | 51 | 252 | 2.0 | 3.0 | 0.00 | 0.22 | 0.22 | 72 | 1019.4 |
| 20260507022216 | 51 | 239 | 2.0 | 2.0 | 0.00 | 0.22 | 0.22 | 72 | 1019.0 |
| 20260507021712 | 51 | 299 | 1.0 | 3.0 | 0.00 | 0.22 | 0.22 | 71 | 1019.1 |
| 20260507021208 | 51 | 308 | 2.0 | 3.0 | 0.00 | 0.22 | 0.22 | 71 | 1019.1 |
| 20260507020707 | 51 | 288 | 2.0 | 3.0 | 0.00 | 0.22 | 0.22 | 71 | 1019.0 |
| 20260507020202 | 51 | 243 | 1.0 | 2.0 | 0.00 | 0.22 | 0.22 | 71 | 1018.9 |
| 20260507015700 | 51 | 277 | 1.0 | 2.0 | 0.00 | 0.22 | 0.22 | 70 | 1018.9 |
| 20260507015158 | 51 | 297 | 2.0 | 2.0 | 0.00 | 0.22 | 0.22 | 70 | 1018.7 |
| 20260507014654 | 52 | 267 | 1.0 | 2.0 | 0.00 | 0.22 | 0.22 | 69 | 1018.6 |
| 20260507014150 | 52 | 305 | 3.0 | 3.0 | 0.00 | 0.22 | 0.22 | 68 | 1018.6 |
| 20260507013647 | 52 | 305 | 3.0 | 3.0 | 0.00 | 0.22 | 0.22 | 68 | 1018.3 |
| 20260507013144 | 52 | 287 | 2.0 | 2.0 | 0.00 | 0.22 | 0.22 | 68 | 1018.7 |
| 20260507012642 | 52 | 308 | 3.0 | 3.0 | 0.00 | 0.22 | 0.22 | 68 | 1018.4 |
| 20260507012137 | 52 | 223 | 0.0 | 2.0 | 0.00 | 0.22 | 0.22 | 67 | 1018.6 |
| 20260507011636 | 52 | 232 | 1.0 | 1.0 | 0.00 | 0.22 | 0.22 | 66 | 1018.4 |
| 20260507011131 | 52 | 288 | 0.0 | 1.0 | 0.00 | 0.22 | 0.22 | 66 | 1018.5 |
| 20260507010626 | 53 | 301 | 2.0 | 3.0 | 0.00 | 0.22 | 0.22 | 65 | 1018.6 |
| 20260507010123 | 53 | 300 | 3.0 | 6.0 | 0.00 | 0.22 | 0.22 | 65 | 1018.4 |
| 20260507005620 | 53 | 240 | 1.0 | 2.0 | 0.00 | 0.22 | 0.22 | 65 | 1018.7 |
| 20260507005116 | 53 | 300 | 1.0 | 3.0 | 0.00 | 0.22 | 0.22 | 64 | 1018.7 |
| 20260507004613 | 53 | 247 | 1.0 | 2.0 | 0.00 | 0.22 | 0.22 | 64 | 1018.4 |
| 20260507004110 | 53 | 295 | 2.0 | 3.0 | 0.00 | 0.22 | 0.22 | 63 | 1018.6 |
| 20260507003606 | 53 | 145 | 0.0 | 0.0 | 0.00 | 0.22 | 0.22 | 62 | 1018.4 |
| 20260507003101 | 53 | 171 | 0.0 | 1.0 | 0.00 | 0.22 | 0.22 | 63 | 1018.4 |
| 20260507002558 | 53 | 205 | 0.0 | 1.0 | 0.00 | 0.22 | 0.22 | 62 | 1018.3 |
| 20260507002054 | 53 | 298 | 0.0 | 2.0 | 0.00 | 0.22 | 0.22 | 61 | 1018.4 |
| 20260507001551 | 53 | 301 | 3.0 | 5.0 | 0.00 | 0.22 | 0.22 | 60 | 1018.2 |
| 20260507001048 | 54 | 195 | 0.0 | 1.0 | 0.00 | 0.22 | 0.22 | 61 | 1018.3 |
| 20260507000544 | 54 | 253 | 2.0 | 3.0 | 0.00 | 0.22 | 0.22 | 61 | 1018.2 |
| 20260507000040 | 54 | 294 | 1.0 | 1.0 | 0.00 | 0.22 | 0.22 | 60 | 1018.3 |
| 20260506235538 | 54 | 306 | 5.0 | 7.0 | 0.00 | 0.22 | 0.22 | 59 | 1018.1 |
| 20260506235033 | 54 | 316 | 2.0 | 2.0 | 0.00 | 0.22 | 0.22 | 60 | 1018.1 |
| 20260506234531 | 55 | 322 | 0.0 | 3.0 | 0.00 | 0.22 | 0.22 | 60 | 1018.4 |
| 20260506234028 | 55 | 298 | 3.0 | 5.0 | 0.00 | 0.22 | 0.22 | 59 | 1018.5 |
| 20260506233525 | 55 | 298 | 4.0 | 5.0 | 0.00 | 0.22 | 0.22 | 58 | 1018.4 |
| 20260506233022 | 55 | 306 | 3.0 | 5.0 | 0.00 | 0.22 | 0.22 | 56 | 1018.2 |
| 20260506232518 | 56 | 108 | 1.0 | 3.0 | 0.00 | 0.22 | 0.22 | 56 | 1018.3 |
| 20260506232013 | 56 | 81 | 2.0 | 3.0 | 0.00 | 0.22 | 0.22 | 57 | 1018.4 |
| 20260506231511 | 55 | 159 | 0.0 | 1.0 | 0.00 | 0.22 | 0.22 | 60 | 1018.4 |
| 20260506231009 | 54 | 258 | 2.0 | 3.0 | 0.00 | 0.22 | 0.22 | 59 | 1018.2 |
| 20260506230504 | 55 | 211 | 3.0 | 3.0 | 0.00 | 0.22 | 0.22 | 58 | 1018.3 |
| 20260506230003 | 55 | 155 | 0.0 | 1.0 | 0.00 | 0.22 | 0.22 | 58 | 1018.4 |
| 20260506225459 | 54 | 124 | 1.0 | 2.0 | 0.00 | 0.22 | 0.22 | 58 | 1018.3 |
| 20260506224955 | 54 | 305 | 2.0 | 5.0 | 0.00 | 0.22 | 0.22 | 58 | 1018.4 |
| 20260506224452 | 54 | 241 | 0.0 | 2.0 | 0.00 | 0.22 | 0.22 | 59 | 1018.3 |
| 20260506223949 | 54 | 188 | 1.0 | 2.0 | 0.00 | 0.22 | 0.22 | 58 | 1018.2 |
| 20260506223445 | 55 | 191 | 1.0 | 1.0 | 0.00 | 0.22 | 0.22 | 59 | 1018.3 |
| 20260506222942 | 54 | 293 | 2.0 | 3.0 | 0.00 | 0.22 | 0.22 | 57 | 1018.4 |
| 20260506222439 | 55 | 288 | 3.0 | 5.0 | 0.00 | 0.22 | 0.22 | 56 | 1018.3 |
| 20260506221935 | 55 | 306 | 3.0 | 6.0 | 0.00 | 0.22 | 0.22 | 56 | 1018.2 |
| 20260506221432 | 57 | 292 | 2.0 | 3.0 | 0.00 | 0.22 | 0.22 | 55 | 1018.2 |
| 20260506220930 | 57 | 270 | 3.0 | 3.0 | 0.00 | 0.22 | 0.22 | 55 | 1018.4 |
| 20260506220425 | 56 | 287 | 4.0 | 5.0 | 0.00 | 0.22 | 0.22 | 56 | 1018.3 |
| 20260506215922 | 56 | 128 | 1.0 | 9.0 | 0.00 | 0.22 | 0.22 | 55 | 1018.2 |
| 20260506215418 | 57 | 217 | 2.0 | 5.0 | 0.00 | 0.22 | 0.22 | 54 | 1018.3 |
| 20260506214914 | 57 | 211 | 2.0 | 3.0 | 0.00 | 0.22 | 0.22 | 54 | 1018.5 |
| 20260506214411 | 54 | 227 | 2.0 | 5.0 | 0.00 | 0.22 | 0.22 | 57 | 1018.5 |
| 20260506213909 | 55 | 291 | 3.0 | 6.0 | 0.00 | 0.22 | 0.22 | 56 | 1018.7 |
| 20260506213406 | 57 | 256 | 4.0 | 6.0 | 0.00 | 0.22 | 0.22 | 54 | 1018.5 |
| 20260506212904 | 56 | 176 | 1.0 | 3.0 | 0.00 | 0.22 | 0.22 | 55 | 1018.7 |
| 20260506212359 | 57 | 310 | 3.0 | 5.0 | 0.00 | 0.22 | 0.22 | 53 | 1018.6 |
| 20260506211854 | 57 | 142 | 2.0 | 3.0 | 0.00 | 0.22 | 0.22 | 57 | 1018.9 |
| 20260506211350 | 56 | 271 | 4.0 | 6.0 | 0.00 | 0.22 | 0.22 | 57 | 1018.9 |
| 20260506210848 | 56 | 94 | 1.0 | 3.0 | 0.00 | 0.22 | 0.22 | 58 | 1018.9 |
| 20260506210344 | 57 | 208 | 2.0 | 3.0 | 0.00 | 0.22 | 0.22 | 57 | 1018.9 |
| 20260506205842 | 56 | 214 | 1.0 | 3.0 | 0.00 | 0.22 | 0.22 | 62 | 1018.9 |
| 20260506205338 | 58 | 307 | 3.0 | 7.0 | 0.00 | 0.22 | 0.22 | 58 | 1019.2 |
| 20260506204834 | 55 | 143 | 1.0 | 2.0 | 0.00 | 0.22 | 0.22 | 60 | 1019.0 |
| 20260506204332 | 55 | 79 | 1.0 | 3.0 | 0.00 | 0.22 | 0.22 | 62 | 1019.2 |
| 20260506203829 | 55 | 120 | 1.0 | 2.0 | 0.00 | 0.22 | 0.22 | 62 | 1019.1 |
| 20260506203326 | 57 | 153 | 3.0 | 3.0 | 0.00 | 0.22 | 0.22 | 60 | 1019.3 |
| 20260506202823 | 56 | 94 | 3.0 | 3.0 | 0.00 | 0.22 | 0.22 | 64 | 1019.4 |
| 20260506202320 | 55 | 261 | 1.0 | 5.0 | 0.00 | 0.22 | 0.22 | 61 | 1019.4 |
| 20260506201816 | 55 | 185 | 2.0 | 3.0 | 0.00 | 0.22 | 0.22 | 64 | 1019.4 |
| 20260506201315 | 54 | 270 | 3.0 | 5.0 | 0.00 | 0.22 | 0.22 | 67 | 1019.5 |
| 20260506200811 | 55 | 306 | 5.0 | 6.0 | 0.00 | 0.22 | 0.22 | 65 | 1019.6 |
| 20260506200307 | 54 | 145 | 0.0 | 3.0 | 0.00 | 0.22 | 0.22 | 64 | 1019.7 |
| 20260506195803 | 53 | 255 | 2.0 | 3.0 | 0.00 | 0.22 | 0.22 | 68 | 1019.7 |
| 20260506195300 | 53 | 47 | 3.0 | 6.0 | 0.00 | 0.22 | 0.22 | 66 | 1019.7 |
| 20260506194758 | 52 | 307 | 2.0 | 6.0 | 0.00 | 0.22 | 0.22 | 69 | 1019.5 |
| 20260506194254 | 53 | 163 | 2.0 | 3.0 | 0.00 | 0.22 | 0.22 | 70 | 1019.7 |
| 20260506193752 | 51 | 68 | 2.0 | 5.0 | 0.00 | 0.22 | 0.22 | 71 | 1019.6 |
| 20260506193248 | 53 | 250 | 1.0 | 6.0 | 0.00 | 0.22 | 0.22 | 70 | 1019.9 |
| 20260506192744 | 53 | 170 | 0.0 | 3.0 | 0.00 | 0.22 | 0.22 | 69 | 1019.7 |
| 20260506192241 | 53 | 144 | 0.0 | 1.0 | 0.00 | 0.22 | 0.22 | 67 | 1019.8 |
| 20260506191738 | 53 | 135 | 0.0 | 1.0 | 0.00 | 0.22 | 0.22 | 68 | 1019.8 |
| 20260506191235 | 52 | 160 | 1.0 | 3.0 | 0.00 | 0.22 | 0.22 | 66 | 1019.8 |
| 20260506190732 | 53 | 352 | 0.0 | 5.0 | 0.00 | 0.22 | 0.22 | 68 | 1019.8 |
| 20260506190228 | 52 | 350 | 1.0 | 1.0 | 0.00 | 0.22 | 0.22 | 70 | 1019.9 |
| 20260506185725 | 51 | 271 | 0.0 | 2.0 | 0.00 | 0.22 | 0.22 | 69 | 1019.8 |
| 20260506185221 | 52 | 274 | 2.0 | 2.0 | 0.00 | 0.22 | 0.22 | 70 | 1020.1 |
| 20260506184719 | 52 | 277 | 3.0 | 3.0 | 0.00 | 0.22 | 0.22 | 73 | 1020.2 |
| 20260506184216 | 51 | 293 | 2.0 | 3.0 | 0.00 | 0.22 | 0.22 | 73 | 1019.9 |
| 20260506183713 | 52 | 110 | 2.0 | 3.0 | 0.00 | 0.22 | 0.22 | 70 | 1020.2 |
| 20260506183209 | 51 | 134 | 1.0 | 1.0 | 0.00 | 0.22 | 0.22 | 72 | 1019.9 |
| 20260506182706 | 52 | 58 | 2.0 | 5.0 | 0.00 | 0.22 | 0.22 | 71 | 1020.2 |
| 20260506182203 | 51 | 120 | 1.0 | 2.0 | 0.00 | 0.22 | 0.22 | 74 | 1020.0 |
| 20260506181701 | 51 | 70 | 2.0 | 3.0 | 0.00 | 0.22 | 0.22 | 75 | 1020.1 |
| 20260506181158 | 51 | 42 | 5.0 | 7.0 | 0.00 | 0.22 | 0.22 | 76 | 1019.9 |
| 20260506180655 | 50 | 104 | 0.0 | 2.0 | 0.00 | 0.22 | 0.22 | 78 | 1020.3 |
| 20260506180151 | 50 | 94 | 3.0 | 3.0 | 0.00 | 0.22 | 0.22 | 78 | 1020.1 |
| 20260506175648 | 50 | 131 | 0.0 | 3.0 | 0.00 | 0.22 | 0.22 | 80 | 1020.1 |
| 20260506175145 | 50 | 89 | 2.0 | 5.0 | 0.00 | 0.22 | 0.22 | 78 | 1020.2 |
| 20260506174638 | 50 | 72 | 2.0 | 3.0 | 0.00 | 0.22 | 0.22 | 78 | 1020.1 |
| 20260506174134 | 51 | 98 | 3.0 | 3.0 | 0.00 | 0.22 | 0.22 | 79 | 1020.2 |
| 20260506173631 | 50 | 64 | 3.0 | 5.0 | 0.00 | 0.22 | 0.22 | 80 | 1020.1 |
| 20260506173129 | 50 | 67 | 1.0 | 3.0 | 0.00 | 0.22 | 0.22 | 81 | 1020.1 |
| 20260506172626 | 50 | 73 | 3.0 | 6.0 | 0.00 | 0.22 | 0.22 | 83 | 1020.3 |
| 20260506172121 | 49 | 99 | 0.0 | 2.0 | 0.00 | 0.22 | 0.22 | 84 | 1020.2 |
| 20260506171620 | 48 | 71 | 2.0 | 2.0 | 0.00 | 0.22 | 0.22 | 84 | 1020.2 |
| 20260506171117 | 48 | 107 | 1.0 | 5.0 | 0.00 | 0.22 | 0.22 | 84 | 1020.3 |
| 20260506170615 | 47 | 99 | 3.0 | 5.0 | 0.00 | 0.22 | 0.22 | 84 | 1020.3 |
| 20260506170111 | 47 | 102 | 1.0 | 3.0 | 0.00 | 0.22 | 0.22 | 83 | 1020.6 |
| 20260506165610 | 48 | 89 | 1.0 | 3.0 | 0.00 | 0.22 | 0.22 | 84 | 1020.8 |
| 20260506165106 | 47 | 107 | 2.0 | 5.0 | 0.00 | 0.22 | 0.22 | 84 | 1020.7 |
| 20260506164603 | 47 | 99 | 1.0 | 5.0 | 0.00 | 0.22 | 0.22 | 84 | 1020.6 |
| 20260506164100 | 47 | 88 | 3.0 | 3.0 | 0.00 | 0.22 | 0.22 | 85 | 1020.3 |
| 20260506163555 | 47 | 110 | 0.0 | 0.0 | 0.00 | 0.22 | 0.22 | 86 | 1020.4 |
| 20260506163051 | 47 | 107 | 0.0 | 8.0 | 0.00 | 0.22 | 0.22 | 88 | 1020.6 |
| 20260506162547 | 46 | 99 | 0.0 | 1.0 | 0.00 | 0.22 | 0.22 | 91 | 1020.2 |
| 20260506162039 | 46 | 100 | 4.0 | 7.0 | 0.00 | 0.22 | 0.22 | 93 | 1020.2 |
| 20260506161536 | 46 | 93 | 6.0 | 8.0 | 0.00 | 0.22 | 0.22 | 95 | 1020.2 |
| 20260506161028 | 45 | 84 | 4.0 | 7.0 | 0.00 | 0.22 | 0.22 | 97 | 1020.0 |
| 20260506160526 | 44 | 80 | 5.0 | 10.0 | 0.00 | 0.22 | 0.22 | 98 | 1020.0 |
| 20260506160023 | 44 | 107 | 3.0 | 6.0 | 0.00 | 0.22 | 0.22 | 98 | 1020.1 |
| 20260506155521 | 44 | 91 | 2.0 | 3.0 | 0.00 | 0.22 | 0.22 | 98 | 1020.1 |
| 20260506153658 | 43 | 99 | 0.0 | 0.0 | 0.00 | 0.22 | 0.22 | 99 | 1020.1 |
| 20260506153155 | 44 | 100 | 0.0 | 2.0 | 0.00 | 0.22 | 0.22 | 99 | 1020.2 |
| 20260506152652 | 43 | 105 | 0.0 | 2.0 | 0.00 | 0.22 | 0.22 | 99 | 1020.1 |
| 20260506152149 | 42 | 55 | 1.0 | 3.0 | 0.00 | 0.22 | 0.22 | 99 | 1020.1 |
| 20260506151648 | 42 | 47 | 1.0 | 3.0 | 0.00 | 0.22 | 0.22 | 99 | 1020.0 |
| 20260506151144 | 43 | 81 | 0.0 | 3.0 | 0.00 | 0.22 | 0.22 | 99 | 1020.0 |
| 20260506150641 | 43 | 76 | 0.0 | 0.0 | 0.00 | 0.22 | 0.22 | 99 | 1020.1 |
| 20260506150138 | 42 | 93 | 0.0 | 0.0 | 0.07 | 0.22 | 0.22 | 99 | 1020.0 |
| 20260506145635 | 42 | 68 | 0.0 | 0.0 | 0.07 | 0.22 | 0.22 | 99 | 1020.1 |
| 20260506145132 | 43 | 88 | 0.0 | 3.0 | 0.00 | 0.21 | 0.21 | 99 | 1020.2 |
| 20260506144630 | 42 | 68 | 0.0 | 0.0 | 0.00 | 0.21 | 0.21 | 99 | 1020.0 |
| 20260506144126 | 43 | 106 | 0.0 | 0.0 | 0.00 | 0.21 | 0.21 | 99 | 1019.9 |
| 20260506143624 | 42 | 87 | 0.0 | 2.0 | 0.00 | 0.21 | 0.21 | 99 | 1019.8 |
| 20260506143122 | 42 | 27 | 1.0 | 3.0 | 0.00 | 0.21 | 0.21 | 99 | 1020.1 |
| 20260506142620 | 42 | 36 | 1.0 | 3.0 | 0.00 | 0.21 | 0.21 | 99 | 1020.0 |
| 20260506142118 | 42 | 56 | 1.0 | 3.0 | 0.00 | 0.21 | 0.21 | 99 | 1019.9 |
| 20260506141615 | 42 | 32 | 3.0 | 6.0 | 0.00 | 0.21 | 0.21 | 99 | 1019.9 |
| 20260506141113 | 42 | 92 | 0.0 | 0.0 | 0.00 | 0.21 | 0.21 | 99 | 1019.9 |
| 20260506140610 | 42 | 89 | 0.0 | 0.0 | 0.00 | 0.21 | 0.21 | 99 | 1019.8 |
| 20260506140107 | 42 | 78 | 0.0 | 0.0 | 0.00 | 0.21 | 0.21 | 99 | 1019.7 |
| 20260506135604 | 42 | 76 | 0.0 | 0.0 | 0.05 | 0.21 | 0.21 | 99 | 1019.6 |
| 20260506135100 | 43 | 81 | 0.0 | 0.0 | 0.05 | 0.21 | 0.21 | 99 | 1019.7 |
| 20260506134557 | 42 | 74 | 0.0 | 1.0 | 0.00 | 0.20 | 0.20 | 99 | 1019.7 |
| 20260506134053 | 42 | 39 | 0.0 | 1.0 | 0.00 | 0.20 | 0.20 | 99 | 1019.5 |
| 20260506133550 | 42 | 74 | 0.0 | 0.0 | 0.00 | 0.20 | 0.20 | 99 | 1019.6 |
| 20260506133047 | 43 | 75 | 0.0 | 0.0 | 0.00 | 0.20 | 0.20 | 99 | 1019.5 |
| 20260506132544 | 43 | 70 | 0.0 | 0.0 | 0.07 | 0.20 | 0.20 | 99 | 1019.2 |
| 20260506132042 | 42 | 65 | 0.0 | 0.0 | 0.07 | 0.20 | 0.20 | 99 | 1019.1 |
| 20260506131538 | 42 | 63 | 0.0 | 0.0 | 0.00 | 0.19 | 0.19 | 99 | 1019.1 |
| 20260506131035 | 42 | 63 | 0.0 | 0.0 | 0.00 | 0.19 | 0.19 | 99 | 1019.0 |
| 20260506130532 | 42 | 62 | 0.0 | 0.0 | 0.00 | 0.19 | 0.19 | 99 | 1018.9 |
| 20260506130029 | 42 | 62 | 0.0 | 0.0 | 0.00 | 0.19 | 0.19 | 99 | 1018.7 |
| 20260506125528 | 42 | 61 | 0.0 | 0.0 | 0.00 | 0.19 | 0.19 | 99 | 1018.7 |
| 20260506125025 | 42 | 60 | 0.0 | 0.0 | 0.00 | 0.19 | 0.19 | 99 | 1018.7 |
| 20260506124523 | 42 | 65 | 0.0 | 0.0 | 0.00 | 0.19 | 0.19 | 99 | 1018.9 |
| 20260506124020 | 42 | 61 | 0.0 | 0.0 | 0.00 | 0.19 | 0.19 | 99 | 1018.6 |
| 20260506123518 | 42 | 79 | 0.0 | 0.0 | 0.00 | 0.19 | 0.19 | 99 | 1018.2 |
| 20260506123016 | 42 | 75 | 0.0 | 0.0 | 0.00 | 0.19 | 0.19 | 99 | 1018.2 |
| 20260506122512 | 42 | 73 | 0.0 | 0.0 | 0.00 | 0.19 | 0.19 | 99 | 1018.2 |
| 20260506122011 | 43 | 79 | 0.0 | 0.0 | 0.00 | 0.19 | 0.19 | 99 | 1018.2 |
| 20260506121508 | 43 | 78 | 0.0 | 0.0 | 0.00 | 0.19 | 0.19 | 99 | 1018.0 |
| 20260506121004 | 43 | 77 | 0.0 | 0.0 | 0.00 | 0.19 | 0.19 | 99 | 1018.0 |
| 20260506120502 | 43 | 77 | 0.0 | 0.0 | 0.00 | 0.19 | 0.19 | 99 | 1018.0 |
| 20260506115959 | 43 | 77 | 0.0 | 0.0 | 0.00 | 0.19 | 0.19 | 99 | 1018.0 |
| 20260506115457 | 43 | 77 | 0.0 | 0.0 | 0.00 | 0.19 | 0.19 | 99 | 1018.1 |
| 20260506114955 | 43 | 70 | 0.0 | 0.0 | 0.00 | 0.19 | 0.19 | 99 | 1017.8 |
| 20260506114452 | 43 | 63 | 0.0 | 0.0 | 0.00 | 0.19 | 0.19 | 99 | 1017.6 |
| 20260506113951 | 43 | 61 | 0.0 | 0.0 | 0.00 | 0.19 | 0.19 | 99 | 1017.1 |
| 20260506113448 | 43 | 58 | 0.0 | 0.0 | 0.07 | 0.19 | 0.19 | 99 | 1017.4 |
| 20260506112944 | 43 | 56 | 0.0 | 0.0 | 0.00 | 0.18 | 0.18 | 99 | 1017.5 |
| 20260506112442 | 43 | 91 | 0.0 | 0.0 | 0.00 | 0.18 | 0.18 | 99 | 1017.5 |
| 20260506111939 | 43 | 85 | 0.0 | 0.0 | 0.00 | 0.18 | 0.18 | 99 | 1017.2 |
| 20260506111437 | 43 | 71 | 0.0 | 0.0 | 0.00 | 0.18 | 0.18 | 99 | 1017.2 |
| 20260506110934 | 43 | 121 | 0.0 | 0.0 | 0.00 | 0.18 | 0.18 | 99 | 1017.2 |
| 20260506110432 | 43 | 117 | 0.0 | 0.0 | 0.05 | 0.18 | 0.18 | 99 | 1016.9 |
| 20260506105928 | 43 | 113 | 0.0 | 0.0 | 0.05 | 0.18 | 0.18 | 99 | 1016.6 |
| 20260506105424 | 43 | 101 | 0.0 | 0.0 | 0.00 | 0.17 | 0.17 | 99 | 1016.8 |
| 20260506104922 | 43 | 102 | 0.0 | 0.0 | 0.00 | 0.17 | 0.17 | 99 | 1016.6 |
| 20260506104420 | 43 | 96 | 0.0 | 0.0 | 0.00 | 0.17 | 0.17 | 99 | 1016.7 |
| 20260506103918 | 43 | 89 | 0.0 | 0.0 | 0.00 | 0.17 | 0.17 | 99 | 1016.6 |
| 20260506103415 | 43 | 79 | 0.0 | 1.0 | 0.00 | 0.17 | 0.17 | 99 | 1016.5 |
| 20260506102912 | 43 | 89 | 0.0 | 2.0 | 0.00 | 0.17 | 0.17 | 99 | 1016.6 |
| 20260506102410 | 43 | 101 | 0.0 | 0.0 | 0.00 | 0.17 | 0.17 | 99 | 1016.5 |
| 20260506101907 | 43 | 93 | 0.0 | 0.0 | 0.00 | 0.17 | 0.17 | 98 | 1016.3 |
| 20260506101403 | 43 | 91 | 0.0 | 0.0 | 0.00 | 0.17 | 0.17 | 98 | 1016.3 |
| 20260506100900 | 43 | 102 | 0.0 | 0.0 | 0.00 | 0.17 | 0.17 | 98 | 1016.5 |
| 20260506100359 | 43 | 100 | 0.0 | 0.0 | 0.00 | 0.17 | 0.17 | 98 | 1016.6 |
| 20260506095856 | 43 | 88 | 0.0 | 0.0 | 0.00 | 0.17 | 0.17 | 98 | 1016.4 |
| 20260506095355 | 43 | 62 | 0.0 | 0.0 | 0.00 | 0.17 | 0.17 | 98 | 1016.2 |
| 20260506094850 | 43 | 59 | 0.0 | 0.0 | 0.00 | 0.17 | 0.17 | 98 | 1016.2 |
| 20260506094349 | 43 | 98 | 0.0 | 0.0 | 0.07 | 0.17 | 0.17 | 98 | 1016.6 |
| 20260506093847 | 43 | 90 | 0.0 | 0.0 | 0.07 | 0.17 | 0.17 | 98 | 1016.4 |
| 20260506093344 | 43 | 120 | 0.0 | 0.0 | 0.00 | 0.16 | 0.16 | 98 | 1016.2 |
| 20260506092842 | 43 | 119 | 0.0 | 0.0 | 0.05 | 0.16 | 0.16 | 98 | 1016.4 |
| 20260506092340 | 43 | 148 | 0.0 | 0.0 | 0.05 | 0.16 | 0.16 | 98 | 1016.5 |
| 20260506091836 | 43 | 154 | 0.0 | 0.0 | 0.07 | 0.15 | 0.15 | 98 | 1016.4 |
| 20260506091334 | 43 | 159 | 0.0 | 0.0 | 0.12 | 0.15 | 0.15 | 98 | 1016.5 |
| 20260506090831 | 43 | 171 | 0.0 | 0.0 | 0.05 | 0.14 | 0.14 | 98 | 1016.6 |
| 20260506090328 | 43 | 175 | 0.0 | 0.0 | 0.07 | 0.13 | 0.13 | 98 | 1016.5 |
| 20260506085825 | 43 | 196 | 0.0 | 0.0 | 0.00 | 0.12 | 0.12 | 98 | 1016.4 |
| 20260506085321 | 43 | 220 | 0.0 | 0.0 | 0.05 | 0.12 | 0.12 | 98 | 1016.4 |
| 20260506084818 | 43 | 247 | 0.0 | 0.0 | 0.12 | 0.12 | 0.12 | 98 | 1016.6 |
| 20260506084315 | 44 | 273 | 0.0 | 0.0 | 0.07 | 0.11 | 0.11 | 98 | 1016.5 |
| 20260506083811 | 44 | 286 | 0.0 | 0.0 | 0.00 | 0.10 | 0.10 | 98 | 1016.5 |
| 20260506083309 | 44 | 292 | 0.0 | 0.0 | 0.05 | 0.10 | 0.10 | 97 | 1016.3 |
| 20260506082806 | 44 | 287 | 0.0 | 0.0 | 0.05 | 0.10 | 0.10 | 97 | 1016.8 |
| 20260506082304 | 44 | 257 | 0.0 | 0.0 | 0.07 | 0.09 | 0.09 | 97 | 1016.6 |
| 20260506081759 | 44 | 188 | 0.0 | 0.0 | 0.07 | 0.09 | 0.09 | 97 | 1016.1 |
| 20260506081257 | 44 | 224 | 0.0 | 0.0 | 0.05 | 0.08 | 0.08 | 97 | 1016.3 |
| 20260506080755 | 43 | 184 | 0.0 | 0.0 | 0.05 | 0.08 | 0.08 | 97 | 1016.0 |
| 20260506080251 | 43 | 190 | 0.0 | 0.0 | 0.00 | 0.07 | 0.07 | 97 | 1016.1 |
| 20260506073235 | 44 | 266 | 0.0 | 1.0 | 0.00 | 0.06 | 0.06 | 97 | 1016.9 |
| 20260506072731 | 44 | 284 | 0.0 | 0.0 | 0.07 | 0.06 | 0.06 | 97 | 1017.2 |
| 20260506072229 | 44 | 292 | 0.0 | 0.0 | 0.07 | 0.06 | 0.06 | 96 | 1017.4 |
| 20260506071727 | 44 | 309 | 0.0 | 0.0 | 0.05 | 0.05 | 0.05 | 96 | 1017.4 |
| 20260506071224 | 44 | 330 | 0.0 | 0.0 | 0.12 | 0.05 | 0.05 | 96 | 1017.4 |
| 20260506070721 | 44 | 4 | 0.0 | 0.0 | 0.07 | 0.04 | 0.04 | 96 | 1017.4 |
| 20260506070218 | 44 | 26 | 0.0 | 1.0 | 0.00 | 0.03 | 0.03 | 96 | 1017.5 |
| 20260506062155 | 44 | 110 | 0.0 | 0.0 | 0.00 | 0.03 | 0.03 | 95 | 1016.3 |
| 20260506061651 | 44 | 94 | 0.0 | 2.0 | 0.00 | 0.03 | 0.03 | 94 | 1016.0 |
| 20260506061148 | 44 | 113 | 0.0 | 0.0 | 0.00 | 0.03 | 0.03 | 94 | 1016.1 |
| 20260506060647 | 44 | 113 | 0.0 | 1.0 | 0.00 | 0.03 | 0.03 | 94 | 1016.0 |
| 20260506060143 | 44 | 112 | 0.0 | 0.0 | 0.00 | 0.03 | 0.03 | 93 | 1016.3 |
| 20260506051115 | 44 | 102 | 0.0 | 0.0 | 0.00 | 0.00 | 0.00 | 91 | 1015.8 |
| 20260506050614 | 44 | 102 | 0.0 | 0.0 | 0.00 | 0.00 | 0.00 | 91 | 1015.6 |
| 20260506050111 | 44 | 101 | 0.0 | 0.0 | 0.00 | 0.00 | 0.00 | 91 | 1015.2 |
| 20260506045104 | 44 | 97 | 1.0 | 1.0 | 0.00 | 0.00 | 0.00 | 90 | 1015.2 |
| 20260506044602 | 44 | 95 | 0.0 | 0.0 | 0.00 | 0.00 | 0.00 | 90 | 1015.0 |
| 20260506044058 | 44 | 84 | 0.0 | 2.0 | 0.00 | 0.00 | 0.00 | 90 | 1015.4 |
| 20260506043556 | 44 | 93 | 1.0 | 1.0 | 0.00 | 0.00 | 0.00 | 90 | 1015.6 |
| 20260506043054 | 44 | 91 | 0.0 | 0.0 | 0.00 | 0.00 | 0.00 | 89 | 1014.9 |
| 20260506042553 | 44 | 88 | 0.0 | 0.0 | 0.00 | 0.00 | 0.00 | 89 | 1015.1 |
| 20260506042050 | 44 | 68 | 0.0 | 2.0 | 0.00 | 0.00 | 0.00 | 89 | 1014.8 |
| 20260506041549 | 44 | 72 | 0.0 | 2.0 | 0.00 | 0.00 | 0.00 | 89 | 1014.7 |
| 20260506041045 | 44 | 82 | 0.0 | 2.0 | 0.00 | 0.00 | 0.00 | 89 | 1015.0 |
| 20260506040543 | 44 | 66 | 1.0 | 2.0 | 0.00 | 0.00 | 0.00 | 89 | 1014.9 |
| 20260506040038 | 44 | 44 | 0.0 | 5.0 | 0.00 | 0.00 | 0.00 | 89 | 1015.1 |
| 20260506035536 | 44 | 95 | 0.0 | 3.0 | 0.00 | 0.00 | 0.00 | 89 | 1015.0 |
| 20260506035033 | 44 | 96 | 0.0 | 3.0 | 0.00 | 0.00 | 0.00 | 89 | 1015.2 |
| 20260506034530 | 44 | 77 | 0.0 | 2.0 | 0.00 | 0.00 | 0.00 | 89 | 1015.1 |
| 20260506034027 | 44 | 91 | 0.0 | 2.0 | 0.00 | 0.00 | 0.00 | 89 | 1015.2 |
| 20260506033524 | 44 | 86 | 0.0 | 2.0 | 0.00 | 0.00 | 0.00 | 89 | 1014.9 |
| 20260506033021 | 44 | 81 | 2.0 | 3.0 | 0.00 | 0.00 | 0.00 | 89 | 1014.8 |
| 20260506032519 | 44 | 59 | 1.0 | 3.0 | 0.00 | 0.00 | 0.00 | 89 | 1014.9 |
| 20260506032015 | 44 | 78 | 1.0 | 2.0 | 0.00 | 0.00 | 0.00 | 89 | 1015.1 |
| 20260506031513 | 44 | 63 | 2.0 | 3.0 | 0.00 | 0.00 | 0.00 | 88 | 1015.1 |
| 20260506031009 | 44 | 79 | 0.0 | 2.0 | 0.00 | 0.00 | 0.00 | 88 | 1014.9 |
| 20260506030508 | 44 | 74 | 0.0 | 2.0 | 0.00 | 0.00 | 0.00 | 88 | 1015.0 |
| 20260506030005 | 44 | 62 | 1.0 | 2.0 | 0.00 | 0.00 | 0.00 | 88 | 1014.7 |
| 20260506025501 | 44 | 59 | 0.0 | 0.0 | 0.00 | 0.00 | 0.00 | 88 | 1014.9 |
| 20260506024957 | 44 | 50 | 0.0 | 0.0 | 0.00 | 0.00 | 0.00 | 88 | 1015.0 |
| 20260506024454 | 44 | 74 | 1.0 | 1.0 | 0.00 | 0.00 | 0.00 | 87 | 1015.0 |
| 20260506023950 | 44 | 71 | 0.0 | 1.0 | 0.00 | 0.00 | 0.00 | 87 | 1014.6 |
| 20260506023447 | 44 | 67 | 0.0 | 2.0 | 0.00 | 0.00 | 0.00 | 87 | 1014.7 |